Home > Time Zones > World Clock > Weather > Cuba > Havana > Past weeks

Flag Weather past 2 weeks in Havana, Cuba

Now
68 °F

Clear.


Feels Like: 68 °F
Forecast: 67 / 71 °F
Wind: 15 mph from Northeast

Location: Aeropuerto Jose Marti - Rancho-Boyeros - Habana

Current Time: Nov 27, 2014 at 7:40:21 PM

Latest Report: Nov 27, 2014 at 6:55 PM


Visibility: 6 mi

Pressure: 30.18 "Hg

Humidity: 60%

Dew point: 54 °F

Location of HavanaLocation

Historic Weather in Havana — Graph

°F

Havana temperature yesterday

Maximum temperature yesterday: 79 °F (at 9:55 AM)
Minimum temperature yesterday: 68 °F (at 9:55 PM)
Average temperature yesterday: 74 °F

Past Weeks' High & Low Weather Summary

 TemperatureHumidityPressure
High86 °F (Nov 16, 1:55 PM)100% (Nov 17, 4:55 AM)30.24 "Hg (Nov 17, 4:55 AM)
Low32 °F (Nov 17, 4:55 AM)31% (Nov 27, 11:55 AM)29.89 "Hg (Nov 23, 1:55 PM)
Average74 °F78%30.05 "Hg
* Reported Nov 12 5:55 PM — Nov 27 5:55 PM, Havana, Weather by CustomWeather, © 2014

Note: Actual official high and low records may vary slightly from our data, if they occured in-between our weather recording intervals... More about our weather records

Advertising

Havana weather history for previous 24 hours

 ConditionsComfort  
Time TempWeatherWind HumidityBarometerVisibility
5:55 PM
Nov 27
68 °FClear.16 mph53%30.18 "Hg6 mi
4:55 PM70 °FClear.18 mph46%30.15 "Hg6 mi
3:55 PM72 °FClear.21 mph41%30.15 "Hg6 mi
2:55 PM73 °FClear.12 mph36%30.15 "Hg6 mi
1:55 PM73 °FMild.25 mph38%30.18 "HgN/A
12:55 PM73 °FMild.24 mph31%30.21 "HgN/A
11:55 AM73 °FClear.24 mph31%30.21 "Hg6 mi
10:55 AM72 °FPassing clouds.23 mph36%30.24 "HgN/A
9:55 AM72 °FPartly sunny.22 mph41%30.24 "HgN/A
8:55 AM70 °FPartly sunny.18 mph38%30.24 "HgN/A
7:55 AM68 °FPartly sunny.17 mph43%30.21 "HgN/A
6:55 AM68 °FPartly sunny.17 mph49%30.18 "Hg6 mi
5:55 AM68 °FPassing clouds.16 mph53%30.18 "Hg6 mi
4:55 AM68 °FPassing clouds.15 mph49%30.15 "Hg6 mi
3:55 AM68 °FPassing clouds.15 mph49%30.15 "Hg6 mi
2:55 AM68 °FPassing clouds.16 mph49%30.15 "Hg6 mi
1:55 AM68 °FPassing clouds.14 mph49%30.15 "Hg6 mi
12:55 AM68 °FPassing clouds.14 mph56%30.15 "Hg6 mi
11:55 PM
Nov 26
68 °FPassing clouds.15 mph60%30.15 "Hg6 mi
10:55 PM68 °FPassing clouds.14 mph60%30.18 "Hg6 mi
9:55 PM68 °FPassing clouds.18 mph64%30.15 "Hg6 mi
8:55 PM70 °FPassing clouds.20 mph69%30.15 "Hg6 mi
7:55 PM72 °FPassing clouds.16 mph69%30.12 "Hg6 mi
Weather by CustomWeather, © 2014

See weather overviewHow to use our weather pages